Overview Statistics Trail Chart Weather Telemetry Raw packets
 

This is the latest recevied weather packets stored in our database for station/object KG5APU. If no packets are shown the sender has not sent any weather packets the latest 10 day(s).

<< 34 35 36 37 38 39 40 >>
Time Temp. Humidity Pressure Rain* Wind** Luminosity Snow
1788114875 36.67° C 43% 1016.2 hPa 0 mm - 783 W/m² -
1788114273 36.67° C 44% 1016.3 hPa 0 mm - 783 W/m² -
1788113670 36.67° C 44% 1016.5 hPa 0 mm - 783 W/m² -
1788113070 36.11° C 46% 1016.7 hPa 0 mm - 780 W/m² -
1788112469 36.11° C 47% 1016.9 hPa 0 mm - 775 W/m² -
1788111866 35.56° C 47% 1017 hPa 0 mm - 767 W/m² -
1788111262 35.56° C 48% 1017.1 hPa 0 mm - 757 W/m² -
1788110660 36.11° C 48% 1017.1 hPa 0 mm - 748 W/m² -
1788110057 35.56° C 49% 1017.6 hPa 0 mm - 732 W/m² -
1788109456 35° C 50% 1017.5 hPa 0 mm - 718 W/m² -
1788108856 33.89° C 50% 1017.5 hPa 0 mm - 703 W/m² -
1788108254 34.44° C 51% 1017.6 hPa 0 mm - 684 W/m² -
1788107652 33.89° C 50% 1017.6 hPa 0 mm - 662 W/m² -
1788107048 33.89° C 53% 1017.9 hPa 0 mm - 640 W/m² -
1788106442 33.33° C 54% 1018 hPa 0 mm - 613 W/m² -
1788105839 32.78° C 56% 1017.8 hPa 0 mm - 586 W/m² -
1788105236 32.22° C 58% 1017.5 hPa 0 mm - 560 W/m² -
1788104633 32.22° C 59% 1017.6 hPa 0 mm - 530 W/m² -
1788104030 32.22° C 60% 1017.8 hPa 0 mm - 503 W/m² -
1788103430 31.11° C 63% 1017.8 hPa 0 mm - 474 W/m² -
1788102829 31.11° C 62% 1018.1 hPa 0 mm - 444 W/m² -
1788102230 30.56° C 64% 1017.8 hPa 0 mm - 315 W/m² -
1788101625 30.56° C 64% 1017.9 hPa 0 mm - 383 W/m² -
1788101022 30.56° C 65% 1017.7 hPa 0 mm - 350 W/m² -
1788100417 30° C 65% 1017.6 hPa 0 mm - 316 W/m² -

* Rain latest hour (hover to see other rain measurements)
** Current wind speed in m/s (hover to see current wind gust speed)